[Iaude] MPEC K67: 2020 KD1 [a=1.49,e=0.36,i=8.7,H=27.9]

mpec at marsden.cfa.harvard.edu mpec at marsden.cfa.harvard.edu
Tue May 19 04:19:45 EDT 2020


M.P.E.C. 2020-K67                                  Issued 2020 May 19, 08:17 UT

     The Minor Planet Electronic Circulars contain information on unusual
         minor planets and routine data on comets.  They are published
    on behalf of Division F of the International Astronomical Union by the
          Minor Planet Center, Smithsonian Astrophysical Observatory,
                          Cambridge, MA 02138, U.S.A.

             Prepared using the Tamkin Foundation Computer Network

                              MPC at CFA.HARVARD.EDU
            URL https://www.minorplanetcenter.net/    ISSN 1523-6714

                                    2020 KD1                                    


Observations:
     K20K01D* C2020 05 18.33002 15 08 55.68 +22 06 50.5          20.6 GVEK067G96
     K20K01D  C2020 05 18.33518 15 08 57.21 +22 06 53.4          21.1 GVEK067G96
     K20K01D  C2020 05 18.34035 15 08 58.69 +22 06 56.0          21.1 GVEK067G96
     K20K01D  C2020 05 18.34551 15 09 00.24 +22 06 58.4          20.7 GVEK067G96
     K20K01D  C2020 05 18.40778 15 09 20.01 +22 07 17.5          21.3 GVEK067I52
     K20K01D  C2020 05 18.40955 15 09 20.61 +22 07 18.1          21.0 GVEK067I52
     K20K01D  C2020 05 18.41132 15 09 21.22 +22 07 18.6          21.0 GVEK067I52
     K20K01D  C2020 05 18.41309 15 09 21.85 +22 07 18.9          20.6 GVEK067I52
     K20K01D FC2020 05 18.87426 15 13 48.22 +22 12 06.5                VEK067246
     K20K01D FC2020 05 18.87520 15 13 48.64 +22 12 08.2                VEK067246
     K20K01D FC2020 05 18.87543 15 13 48.74 +22 12 08.1                VEK067246
     K20K01D  C2020 05 18.89425 15 13 57.94 +22 12 11.3          21.0 VVEK067033
     K20K01D  C2020 05 18.89663 15 13 59.06 +22 12 13.9          20.8 VVEK067033
     K20K01D  C2020 05 18.89900 15 14 00.16 +22 12 16.4          20.9 VVEK067033
     K20K01D KC2020 05 19.01509 15 14 59.22 +22 14 47.9          20.4 GUEK067I93
     K20K01D KC2020 05 19.01964 15 15 01.40 +22 14 51.5          20.1 GUEK067I93
     K20K01D KC2020 05 19.02601 15 15 04.48 +22 14 55.5          20.2 GUEK067I93
     K20K01D KC2020 05 19.06785915 15 20.59 +22 14 53.0          20.8 GVEK067L01
     K20K01D KC2020 05 19.07049815 15 21.97 +22 14 54.4          21.1 GVEK067L01
     K20K01D KC2020 05 19.07312215 15 23.39 +22 14 55.2          20.9 GVEK067L01
     K20K01D IC2020 05 19.07675315 15 25.36 +22 14 55.3          20.7 GVEK067L01
     K20K01D KC2020 05 19.20304 15 17 18.03 +22 18 27.7          20.7 GVEK067734
     K20K01D  C2020 05 19.20586 15 17 27.65 +22 19 11.2          20.4 GVEK067I52
     K20K01D KC2020 05 19.20635 15 17 19.71 +22 18 31.4          20.8 GVEK067734
     K20K01D  C2020 05 19.20698 15 17 28.27 +22 19 13.4          20.1 GVEK067I52
     K20K01D  C2020 05 19.20811 15 17 28.87 +22 19 14.4          20.4 GVEK067I52
     K20K01D  C2020 05 19.20923 15 17 29.44 +22 19 16.2          20.4 GVEK067I52
     K20K01D KC2020 05 19.20966 15 17 21.48 +22 18 35.4                VEK067734

Observer details:
033 Karl Schwarzschild Observatory, Tautenburg.  Observers S. Melnikov, B. 
   Stecklum.  Measurer B. Stecklum.  1.34-m f/3 Schmidt + CCD.
246 Klet Observatory-KLENOT.  Observers M. Tichy, J. Ticha.  Measurer M. Tichy. 
    1.06-m f/2.7 reflector + 2048x2048 CCD.
734 Farpoint Observatory, Eskridge.  Observers G. Hug, D. Cromer, D. Goodin.  
    Measurer D. Cromer.  0.7-m reflector + CCD.
G96 Mt. Lemmon Survey.  Observer H. Groeller.  Measurers E. J. Christensen, G. 
   A. Farneth, D. C. Fuls, A. R. Gibbs, A. D. Grauer, H. Groeller, R. A. 
   Kowalski, S. M. Larson, G. J. Leonard, T. A. Pruyne, D. Rankin, R. L. Seaman,
    F. C. Shelly, K. W. Wierzchos.  1.5-m reflector + 10K CCD.
I52 Steward Observatory, Mt. Lemmon Station.  Observer D. C. Fuls.  Measurers 
   E. J. Christensen, G. A. Farneth, D. C. Fuls, A. R. Gibbs, A. D. Grauer, H. 
   Groeller, R. A. Kowalski, S. M. Larson, G. J. Leonard, T. A. Pruyne, D. 
   Rankin, R. L. Seaman, F. C. Shelly, K. W. Wierzchos.  1.0-m reflector + CCD.
I93 St Pardon de Conques.  Observer F. Losse.  0.40-m f/3.7 reflector + CCD.
L01 Visnjan Observatory, Tican.  Observer K. Korlevic.  1.0-m f/2.9 reflector + 
   CCD.

Orbital elements:
2020 KD1                                                 Earth MOID = 0.0005 AU
Epoch 2020 May 31.0 TT = JDT 2459000.5                  Prema
M 347.22624              (2000.0)            P               Q
n   0.54188931     Peri.  217.46011     +0.16012300     +0.97792793
a   1.4900322      Node    62.11603     -0.86493044     +0.20453057
e   0.3579153      Incl.    8.73480     -0.47566371     -0.04271076
P   1.82           H   27.9           G   0.15           U   7
Residuals in seconds of arc
200518 G96  0.0   0.4-    200518 246  0.2+  0.3+    200519 L01  0.3-  0.1-
200518 G96  0.4+  0.1-    200518 033  0.5-  0.3-    200519 734  0.7+  0.0
200518 G96  0.2-  0.0     200518 033  0.3-  0.2-    200519 I52  0.1-  0.3-
200518 G96  0.1+  0.0     200518 033  0.3-  0.3-    200519 734  0.3-  0.3-
200518 I52  0.1-  0.3-    200519 I93  0.1+  0.3-    200519 I52  0.2+  0.3+
200518 I52  0.2-  0.0     200519 I93  0.3+  0.1+    200519 I52  0.1+  0.4-
200518 I52  0.2-  0.2+    200519 I93  0.6+  0.2-    200519 I52  0.3-  0.2-
200518 I52  0.1+  0.2+    200519 L01  0.2+  0.1+    200519 734  0.1-  0.2-
200518 246  0.4+  0.0     200519 L01  0.3-  0.7+
200518 246  0.2+  0.6+    200519 L01  0.3-  0.8+

Ephemeris:
2020 KD1                 a,e,i = 1.49, 0.36, 9                   q = 0.9567
Date    TT    R. A. (2000) Decl.     Delta      r    Elong.  Phase     V
2020 04 19    14 42 24.4 +17 36 02   0.1785  1.1600   148.3    27.1    25.7
...
2020 05 04    14 45 46.4 +20 14 45   0.09525 1.0866   143.8    33.2    24.4
...
2020 05 12    14 50 38.4 +21 14 56   0.05366 1.0520   140.1    38.0    23.2
...
2020 05 18    15 06 47.4 +22 04 03   0.02305 1.0287   137.6    41.5    21.4
2020 05 19    15 14 55.1 +22 17 42   0.01800 1.0251   137.4    42.0    20.9
2020 05 20    15 29 25.0 +22 36 04   0.01299 1.0215   137.2    42.3    20.2
...
2020 05 26    02 08 12.1 -20 00 32   0.01804 1.0019    51.1   128.1    24.7
...
2020 06 03    02 34 11.6 -20 42 43   0.05858 0.9806    53.5   123.7    26.8
...
2020 06 18    02 46 36.1 -19 12 24   0.1345  0.9585    61.2   111.7    27.7

M. P. C. Staff               (C) Copyright 2020 MPC           M.P.E.C. 2020-K67




More information about the Iaude mailing list